GFSFLT2_850_spd_000.txt.gz
Wind_Speed
4 5 3 4 6 5 4 4 4 5 6 6 5 6 7 8 7 7 6 7 8 10 11 11 11 11 11 11 13 13 15 17
3 3 5 8 10 10 7 5 3 4 5 6 7 7 8 8 9 9 9 9 10 10 11 10 10 11 11 11 11 11 10 13
1 2 6 9 11 11 7 5 3 4 6 7 8 7 7 8 9 9 11 12 12 12 12 12 11 9 10 10 11 12 12 12
2 2 3 7 6 7 7 6 5 4 6 8 9 10 9 9 10 12 14 15 16 15 15 12 12 11 11 12 13 14 15 14
6 5 5 7 6 5 6 7 6 7 8 9 10 11 11 12 13 16 17 17 17 17 17 16 13 12 10 11 13 16 18 20
9 5 6 8 9 9 9 10 9 9 10 11 11 12 13 16 17 18 18 19 19 19 18 17 17 16 17 17 18 16 15 16
9 4 7 8 9 11 11 11 11 12 13 14 15 15 17 18 19 19 20 20 20 20 18 17 18 17 17 17 16 16 15 15
11 4 5 7 10 10 10 11 13 14 16 16 16 17 19 19 19 19 20 21 21 21 19 17 16 17 17 17 16 16 16 15
10 4 3 7 9 9 10 12 13 14 14 14 16 18 18 18 19 20 19 21 21 21 21 21 19 17 16 17 16 16 16 16
10 4 4 7 8 11 12 13 15 15 16 17 17 17 17 18 20 19 17 18 19 21 21 21 20 19 18 18 17 15 15 16
9 2 4 4 7 10 11 13 14 15 17 19 20 21 20 21 21 20 19 19 19 21 22 21 21 22 22 21 18 15 13 15
9 1 2 4 6 9 9 11 12 14 16 18 21 23 25 26 26 25 24 24 24 24 24 24 24 24 24 24 21 19 14 16
3 3 2 5 10 12 14 15 16 20 22 22 24 27 30 32 33 32 30 31 29 27 27 28 29 28 28 30 28 24 20 21
4 5 9 11 14 16 18 22 23 24 25 27 30 31 32 36 39 39 39 38 37 35 34 34 33 33 31 31 29 25 30 30
3 5 10 14 18 19 21 23 24 27 27 26 27 33 34 36 35 39 43 44 44 42 42 40 39 37 35 29 13 19 25 25
7 10 13 17 17 16 20 23 27 29 32 36 38 33 31 31 32 32 35 44 49 48 46 44 42 40 38 34 33 32 23 21
8 8 10 12 14 18 22 27 31 34 37 37 35 35 35 35 35 36 36 36 43 50 47 42 39 37 35 28 26 22 17 14
4 7 11 16 22 27 31 31 34 36 38 39 40 41 40 38 36 34 36 36 37 35 36 29 25 23 20 17 13 7 8 10
11 18 23 26 29 31 33 33 32 35 39 40 38 37 36 35 32 28 27 20 21 24 25 25 21 18 13 13 17 18 21 22
21 25 28 30 30 28 27 28 34 38 40 39 33 31 32 30 28 19 17 17 16 8 5 7 12 15 23 24 26 26 21 14

GFSFLT2_850_spd_003.txt.gz
Wind_Speed
9 8 7 6 4 2 1 2 4 4 5 6 6 8 8 9 9 10 11 11 11 11 12 13 13 12 10 8 8 9 13 16
6 4 4 5 6 6 5 2 0 2 2 4 5 7 8 8 9 10 11 13 14 14 14 14 14 13 11 9 9 7 8 10
5 1 3 5 6 7 7 6 3 2 3 5 6 6 7 8 9 10 12 14 16 17 17 16 14 12 11 11 10 9 9 10
3 1 3 5 6 6 5 6 5 4 5 6 8 9 9 9 10 12 14 16 16 17 18 17 15 12 10 9 10 11 12 14
3 2 3 3 3 5 4 5 5 6 7 8 9 11 11 12 14 18 19 20 20 20 19 19 17 14 12 11 11 12 14 16
6 4 2 3 5 7 7 7 8 8 9 10 11 12 13 15 17 20 20 21 21 20 20 20 19 18 16 14 13 13 14 14
9 6 1 4 6 7 6 7 8 10 11 12 13 13 14 17 19 19 20 20 20 20 20 19 17 16 15 14 14 12 12 12
11 6 1 5 6 6 7 8 9 10 12 12 13 14 16 18 18 18 18 19 19 20 19 18 18 17 17 16 16 15 14 13
10 6 1 3 5 6 8 10 11 12 13 13 13 14 16 18 19 19 19 19 19 19 18 18 18 18 17 17 17 17 16 13
11 6 1 3 5 7 9 11 13 13 15 16 17 18 18 19 19 20 19 20 21 21 21 22 21 19 18 18 18 18 16 14
11 6 2 4 2 7 8 11 13 13 13 14 15 17 19 22 24 26 25 25 25 24 23 23 23 23 23 22 21 20 19 15
11 7 5 2 5 9 10 13 14 17 18 20 20 22 24 26 29 31 31 32 32 30 30 30 28 26 27 27 26 24 23 21
11 7 5 3 8 10 13 17 18 20 21 23 25 25 25 26 29 33 36 39 41 41 38 36 35 33 32 31 32 31 29 27
8 9 10 11 13 16 18 19 19 20 21 24 25 27 29 34 35 35 35 37 38 40 45 45 44 41 39 27 21 24 25 28
8 8 10 12 14 14 14 15 19 23 28 32 33 34 34 33 33 34 35 34 34 34 39 45 50 46 45 36 19 24 21 22
6 7 7 7 11 15 20 24 27 28 30 32 33 34 36 37 37 36 36 36 38 37 37 39 42 47 40 48 45 37 23 25
2 4 7 13 19 24 27 28 28 31 35 39 39 40 38 37 36 34 34 34 35 36 37 38 38 41 39 35 35 35 34 23
1 8 16 23 27 29 28 28 31 34 37 40 41 41 40 37 33 30 27 27 26 26 24 20 15 17 23 26 24 23 16 11
14 20 25 28 32 31 29 28 29 34 38 41 41 39 36 31 27 25 23 21 19 12 4 9 8 4 6 6 8 11 17 17
22 25 27 34 32 28 26 27 31 38 41 40 39 35 30 25 23 18 14 10 4 5 8 9 9 13 14 18 16 15 15 17

GFSFLT2_850_spd_006.txt.gz
Wind_Speed
10 9 7 5 3 2 2 2 4 5 5 5 6 7 8 8 8 9 10 10 11 12 13 14 14 14 14 12 9 8 4 7
8 7 6 4 4 3 2 0 2 2 2 4 6 8 8 8 9 9 10 13 15 16 16 16 16 15 14 12 10 7 4 5
7 5 4 2 2 3 3 3 2 2 3 5 7 7 9 10 10 11 13 14 17 18 18 18 17 16 14 12 10 6 5 6
5 4 1 1 2 3 3 4 3 3 4 7 7 8 10 11 12 13 15 17 18 18 19 19 15 9 10 11 7 9 7 7
6 3 0 0 1 2 2 3 5 5 7 8 9 10 10 10 10 11 14 18 13 16 16 12 16 16 12 13 13 12 9 9
7 4 1 1 1 2 3 4 5 6 8 11 10 10 11 11 12 13 15 14 17 14 13 19 19 17 15 13 12 10 7 7
9 7 3 3 1 1 3 4 5 6 8 9 10 9 11 12 13 14 14 14 14 14 14 15 16 15 13 13 11 11 11 7
10 9 6 3 2 2 4 6 6 7 7 9 11 11 11 12 13 13 13 13 13 13 14 15 13 14 13 14 13 10 9 10
11 11 6 3 3 3 4 3 6 5 7 11 11 12 12 14 13 13 14 14 17 15 15 16 16 14 15 15 15 13 10 12
12 12 7 5 4 2 2 4 8 6 9 12 12 13 14 16 15 16 17 20 18 18 18 17 17 15 15 15 14 14 13 14
14 12 7 7 5 1 3 5 5 6 10 11 13 15 17 19 21 22 21 21 23 21 21 21 21 20 19 18 18 17 16 14
12 10 7 10 8 5 6 6 7 11 14 16 18 19 20 22 24 26 26 22 24 24 25 25 25 26 26 24 22 21 19 19
7 8 12 12 8 6 7 8 9 8 10 18 21 24 28 30 31 29 28 24 26 31 28 28 29 28 27 29 29 26 25 24
10 11 12 12 9 12 11 10 8 12 14 22 26 31 31 28 27 27 26 25 25 26 27 28 29 28 31 30 33 33 31 26
7 8 8 6 4 6 7 9 11 12 19 23 28 30 30 29 29 30 31 29 25 25 26 27 32 31 29 32 26 34 31 30
3 1 3 6 11 14 20 14 16 23 21 19 28 30 32 33 34 34 34 32 27 24 24 26 27 34 31 32 39 40 37 33
6 7 10 15 18 23 19 17 15 15 18 22 23 23 29 32 35 35 33 31 26 30 27 21 22 26 29 30 31 33 34 33
9 10 13 18 21 27 25 21 21 22 23 25 24 27 26 25 31 29 28 25 18 16 15 13 11 8 9 10 12 13 15 22
15 21 14 20 34 33 30 27 20 21 24 25 29 28 27 25 28 17 13 12 9 7 8 7 9 11 10 12 9 9 11 12
21 18 13 20 25 22 21 19 20 23 25 31 32 29 27 25 14 11 11 11 11 10 9 6 7 8 11 17 22 25 23 14

GFSFLT2_850_spd_009.txt.gz
Wind_Speed
8 7 7 5 5 4 3 3 4 5 6 6 7 8 8 8 8 9 11 13 15 17 17 16 16 15 14 13 11 9 1 8
7 7 4 4 5 5 4 3 3 4 5 7 9 10 10 10 9 11 12 13 15 17 17 17 17 16 13 12 11 6 6 8
7 4 4 4 4 6 8 6 7 8 10 10 11 7 8 10 15 12 14 15 17 19 19 19 18 14 17 14 10 5 6 6
6 5 3 3 3 3 2 3 3 2 3 6 7 8 9 13 13 18 18 18 20 18 19 18 14 10 14 15 9 10 8 9
8 5 2 3 1 2 2 3 4 4 7 7 7 9 8 10 10 12 13 16 12 15 13 12 13 13 11 11 11 10 9 10
7 4 1 1 3 1 1 2 2 4 5 8 8 8 9 10 10 12 13 13 14 13 13 14 14 13 12 12 10 10 8 10
8 6 4 1 0 0 1 2 2 3 4 6 7 7 8 10 11 12 13 13 14 14 14 14 14 13 13 12 11 11 11 10
10 8 6 3 3 3 2 1 3 3 4 5 7 6 8 10 11 12 13 13 14 15 15 16 15 14 14 14 14 13 13 13
10 9 8 6 5 3 2 2 3 3 4 5 7 9 10 12 12 13 15 16 18 18 18 19 19 18 18 18 17 16 15 14
10 10 10 7 7 5 3 3 3 4 5 7 8 8 11 14 14 15 17 19 20 20 21 21 21 22 22 21 19 20 18 18
11 12 10 7 7 5 5 5 4 6 6 6 10 11 12 16 18 21 22 21 23 23 24 24 24 25 26 27 26 24 23 22
11 10 9 8 7 6 6 6 6 8 8 7 9 9 14 19 20 21 22 20 22 24 26 27 29 30 31 31 32 31 29 27
9 11 13 6 6 7 7 9 9 8 8 9 10 13 23 24 18 17 19 20 23 27 29 29 30 30 31 33 34 36 36 35
7 5 2 2 4 3 5 6 6 9 8 13 13 18 21 20 20 20 20 22 25 26 26 29 30 28 30 33 35 36 36 37
7 6 5 5 4 3 5 7 10 13 15 17 17 22 21 20 20 20 21 21 23 24 25 26 31 31 29 31 33 34 32 34
8 6 4 6 2 5 10 10 12 14 16 19 23 21 20 21 21 21 21 21 22 23 22 25 26 31 29 30 34 37 38 38
5 3 4 6 6 10 13 14 19 25 23 20 21 19 20 21 22 23 27 22 20 19 19 18 19 21 23 23 24 26 27 25
4 6 8 8 9 13 16 25 33 18 19 20 19 21 22 22 23 21 20 18 17 17 17 16 17 17 16 15 13 13 17 14
7 12 13 12 14 15 14 15 16 17 19 19 23 24 23 23 20 18 17 17 17 17 17 20 13 12 11 13 14 19 21 21
13 13 15 17 16 17 18 17 16 17 18 21 22 22 23 20 19 19 19 20 19 16 11 13 16 19 23 19 17 14 14 19

GFSFLT2_850_spd_012.txt.gz
Wind_Speed
13 10 9 8 6 5 5 4 4 5 6 8 9 9 10 9 8 8 11 12 14 16 17 17 16 16 15 14 13 12 7 7
8 10 10 6 8 7 7 7 8 9 9 12 12 13 18 16 14 17 16 16 17 19 19 19 18 15 14 15 14 7 6 8
8 8 7 3 6 9 8 10 11 10 11 13 11 12 11 16 16 19 18 19 20 16 21 19 14 11 14 15 13 7 8 7
10 5 5 8 4 6 10 10 11 8 6 7 5 9 6 13 13 17 16 20 18 17 17 17 13 13 12 11 9 12 16 9
8 8 6 7 2 5 6 5 3 5 1 9 4 8 4 5 8 12 15 16 14 20 16 15 17 22 18 13 14 15 9 10
10 5 3 7 6 4 6 3 2 2 4 3 4 2 4 5 5 10 10 11 14 14 15 16 16 19 21 18 16 14 10 12
15 11 4 1 8 3 5 6 3 4 1 6 7 5 7 7 9 9 10 12 13 15 18 15 17 18 15 17 21 16 15 16
18 13 6 5 5 6 3 2 3 2 3 7 6 7 10 11 13 14 12 13 16 21 18 21 22 23 20 16 20 23 21 18
19 16 12 9 6 5 5 5 2 1 4 8 10 8 10 13 16 16 14 16 21 24 20 21 22 23 24 24 22 24 25 21
10 19 10 6 4 6 3 5 2 2 4 6 8 10 13 15 15 18 19 24 28 27 26 22 24 25 26 27 27 28 27 27
8 10 7 6 10 6 7 7 3 7 8 7 11 8 13 15 18 22 25 28 28 26 24 23 24 26 30 30 29 28 28 29
4 9 5 7 6 8 6 8 6 4 5 10 14 8 14 18 22 21 21 25 25 22 25 28 29 29 29 30 33 33 34 32
8 10 12 6 4 8 9 7 5 7 5 9 12 14 20 27 24 22 25 21 23 24 27 28 28 28 28 31 31 32 32 33
10 9 8 7 5 3 5 6 6 6 6 9 11 17 24 34 24 22 21 25 27 25 24 28 31 28 27 30 34 36 32 30
6 3 3 5 8 2 1 4 6 11 19 29 21 28 40 21 20 22 24 28 30 30 25 24 26 26 23 23 31 31 31 31
7 7 6 4 2 7 14 9 10 14 14 20 27 19 15 19 22 23 24 27 30 23 22 24 25 25 22 16 20 23 21 28
5 3 3 5 8 13 12 11 16 19 15 16 17 14 20 26 24 26 29 29 24 23 21 20 19 19 20 22 28 31 31 25
4 5 8 11 10 9 18 15 15 15 16 16 17 21 27 24 25 26 24 18 18 20 22 21 22 25 24 24 17 21 19 16
9 11 13 13 17 11 10 14 14 13 16 19 24 26 22 26 23 21 19 20 23 26 24 24 24 24 24 23 26 26 21 18
13 13 15 15 17 15 13 13 14 15 17 23 20 20 22 19 20 22 20 21 19 22 24 25 26 26 28 23 26 24 16 18

GFSFLT2_850_spd_015.txt.gz
Wind_Speed
14 12 10 10 9 9 9 9 9 9 9 9 10 11 12 14 13 14 14 15 16 17 17 17 15 13 12 13 13 9 8 4
11 10 10 11 11 10 11 11 12 12 12 11 10 12 13 15 13 16 16 19 18 16 20 17 14 11 13 12 10 5 5 5
8 7 8 8 12 15 13 12 11 10 10 10 7 10 10 13 13 14 16 16 16 19 18 17 16 16 20 16 9 4 5 11
12 5 7 7 8 8 10 10 11 10 9 8 6 7 6 9 8 10 14 12 15 17 20 19 20 22 20 18 13 12 11 12
12 5 14 7 2 5 7 9 7 4 5 4 5 2 0 5 7 9 10 12 13 15 17 20 19 20 24 23 17 13 10 10
13 7 9 14 11 10 11 9 6 4 5 4 3 0 1 2 5 8 8 9 11 13 17 21 18 19 21 22 22 21 17 11
15 8 7 10 10 11 11 8 5 6 3 3 3 4 4 7 10 11 11 11 13 17 21 25 21 22 23 23 23 21 21 18
17 11 5 7 13 8 8 6 3 2 4 5 6 6 6 9 11 12 13 15 16 20 23 24 22 23 24 24 24 25 26 24
26 13 6 8 9 6 7 3 0 3 7 8 11 8 8 8 10 12 14 17 21 24 27 24 23 23 23 25 24 26 28 31
27 11 18 17 9 5 9 6 2 3 5 4 7 8 12 13 12 13 18 21 24 27 25 23 23 22 23 24 25 27 27 26
18 8 15 15 11 9 6 5 6 6 9 7 8 8 12 15 14 22 30 28 27 27 28 26 27 28 31 31 29 27 27 28
11 11 6 10 15 10 8 6 4 6 4 6 10 12 15 16 22 35 36 33 31 28 27 28 29 29 29 31 31 30 28 26
22 22 19 14 14 10 10 9 6 3 5 8 10 15 19 26 28 28 25 28 28 28 28 26 28 29 33 34 34 32 29 28
6 6 11 8 8 8 8 6 4 5 8 10 17 19 24 23 25 19 21 23 27 31 30 32 27 26 26 29 28 37 34 30
2 1 1 4 3 4 5 5 9 12 15 20 20 21 26 22 18 21 24 27 28 29 32 26 29 29 27 25 19 13 29 31
8 10 11 10 9 11 15 14 13 15 18 18 20 23 22 18 22 26 31 29 30 27 20 21 23 25 26 20 20 24 20 25
7 7 13 18 17 18 14 10 11 7 12 17 19 20 22 23 28 28 24 22 19 21 22 24 25 25 24 24 25 24 27 29
9 3 3 11 11 9 12 13 13 14 20 23 22 25 28 26 22 21 18 20 22 24 26 31 30 27 22 23 25 24 22 23
4 7 13 15 11 11 12 15 17 19 21 23 24 24 23 21 21 23 26 24 23 23 23 24 23 24 29 29 28 31 26 25
7 10 11 12 14 16 15 16 18 19 20 23 20 20 18 19 21 29 22 24 25 25 22 22 25 28 29 29 26 25 22 21

GFSFLT2_850_spd_018.txt.gz
Wind_Speed
15 13 12 9 8 8 8 9 10 10 8 8 10 11 10 12 13 13 14 13 15 16 15 14 13 11 13 10 4 1 2 2
13 13 13 12 10 11 11 11 10 10 9 10 10 12 12 12 13 13 14 13 15 16 18 17 16 15 16 15 6 5 5 3
11 11 13 15 16 14 13 12 9 10 8 7 9 9 8 10 11 11 12 12 14 14 18 20 19 18 18 18 15 9 10 11
9 9 13 13 9 8 10 10 9 8 8 7 6 5 5 7 9 10 11 12 12 14 17 20 21 19 20 19 17 14 14 13
13 12 11 11 7 6 7 6 5 5 5 4 2 3 4 6 7 9 10 11 13 15 17 19 23 19 18 20 19 17 14 13
13 10 11 13 12 10 8 4 2 1 2 3 2 2 2 2 4 7 9 10 13 16 18 20 23 20 18 20 19 19 18 17
16 13 15 12 9 8 9 6 4 3 3 3 3 2 1 1 2 3 5 7 11 14 17 21 23 21 20 21 19 19 20 21
20 17 15 14 12 11 10 10 8 5 3 4 5 5 6 5 5 6 8 11 15 18 21 23 25 24 25 21 20 20 19 19
26 22 14 11 11 7 10 10 4 5 6 8 10 11 12 11 10 11 11 14 18 22 27 29 29 28 27 25 22 22 23 23
31 24 16 10 11 8 8 8 6 9 11 13 13 15 13 12 13 16 18 21 25 34 39 35 32 30 30 29 29 28 27 25
28 20 16 12 14 9 11 10 9 10 8 12 12 10 11 13 16 19 27 35 35 37 32 28 28 29 30 30 30 30 29 27
23 11 12 10 12 15 14 12 10 6 6 4 3 6 10 15 19 27 34 30 33 30 29 30 29 30 33 33 32 31 30 27
18 9 16 14 14 14 12 8 5 4 3 3 6 12 16 20 26 30 29 26 23 25 31 32 34 36 37 38 39 35 17 19
9 12 13 16 13 8 5 4 4 3 6 10 14 18 23 26 28 23 21 23 25 29 33 35 34 29 30 33 24 36 24 18
10 7 5 2 2 2 1 5 12 13 16 20 24 23 22 25 20 21 25 28 30 29 26 24 25 25 25 24 21 18 27 28
8 8 7 5 5 10 14 19 21 23 24 23 19 22 23 22 27 29 27 23 24 23 22 22 22 23 25 20 20 20 18 27
10 12 14 12 12 15 18 18 18 20 20 21 21 20 20 27 25 19 23 22 22 22 22 22 23 24 19 24 26 28 28 27
5 4 5 9 13 15 15 16 16 15 16 17 18 21 28 25 21 23 23 28 23 20 19 19 20 16 19 24 28 27 26 27
3 4 9 10 11 12 14 14 15 17 19 20 30 28 22 21 22 24 29 22 20 20 21 19 21 25 25 25 25 26 26 26
5 9 13 13 14 15 16 18 21 23 21 27 28 27 23 18 21 26 23 21 20 19 19 20 19 17 18 18 21 20 20 22